User: anonymous
Location: Caltech
(34.1382°N, 118.1253°W)
Time: 17:55:57
(UTC-07:00)
Language:

MaSat-1 - Orbit

View from above orbital plane
View from above orbital plane
View from above satellite
View from above satellite

Ground track
Ground track

The orbit data is extracted from the following two-line orbital elements,

1 38081U 12006E   14210.51614822  .00062485  44156-5  65937-3 0  2600
2 38081 069.4564 238.7373 0349576 293.5455 137.6373 15.14885346129878
Epoch (UTC): 29 July 2014 12:23:15
Eccentricity: 0.0349576
inclination: 69.4564°
perigee height: 280 km
apogee height: 762 km
right ascension of ascending node: 238.7373°
argument of perigee: 293.5455°
revolutions per day: 15.14885346
mean anomaly at epoch: 137.6373°
orbit number at epoch: 12987

The dashed part of the orbit path shows where the satellite is in the earth's shadow,  

DLR